SCP
2 2 3 3 3 2 1 1 1 0 1 1 1 1 1 0 0 0 0 0 0 0 0 0 0 0 0 0 0 0 0 0 0 0 0 0 0 0 0 0 0 0 0
2 3 3 4 3 2 1 1 1 0 0 1 1 1 1 0 0 0 0 0 0 0 0 0 0 0 0 0 0 0 0 0 0 0 0 0 0 0 0 0 0 0 0
2 3 3 4 3 2 1 1 1 0 0 0 0 0 0 0 0 0 0 0 0 0 0 0 0 0 0 0 0 0 0 0 0 0 0 0 0 0 0 0 0 0 0
2 2 3 4 4 2 1 1 1 0 0 0 1 1 0 0 0 0 0 0 0 0 0 0 0 0 0 0 0 0 0 0 0 0 0 0 0 0 0 0 0 0 0
2 3 4 4 4 2 1 1 1 1 1 1 1 1 1 1 1 0 0 0 0 0 0 0 0 0 0 0 0 0 0 0 0 0 0 0 0 0 0 0 0 0 0
3 3 4 5 4 2 1 1 1 1 1 1 1 1 1 1 1 0 0 0 0 0 0 0 0 0 0 0 0 0 0 0 0 0 0 0 0 0 0 0 0 0 0
3 3 4 5 4 2 1 1 1 1 1 1 1 1 1 1 1 0 0 0 0 0 0 0 0 0 0 0 0 0 0 0 0 0 0 0 0 0 0 0 0 0 0
3 3 3 4 3 2 1 1 1 1 1 1 1 1 1 1 1 1 0 0 0 0 0 0 0 0 0 0 0 0 0 0 0 0 0 0 0 0 0 0 0 0 0
3 3 3 3 2 2 1 1 1 1 1 1 1 1 1 1 1 1 0 0 0 0 0 0 0 0 0 0 0 0 0 0 0 0 0 0 0 0 0 0 0 0 0
3 3 3 3 2 1 1 1 1 1 1 1 1 1 0 0 0 0 0 0 0 0 0 0 0 0 0 0 0 0 0 0 0 0 0 0 0 0 0 0 0 0 0
3 3 3 3 2 1 1 1 1 1 1 1 1 0 0 0 0 0 0 0 0 0 0 0 0 0 0 0 0 0 0 0 0 0 0 0 0 0 0 0 0 0 0
3 4 3 3 2 1 1 1 1 1 1 1 0 0 0 0 0 0 0 0 0 0 0 0 0 0 0 0 0 0 0 0 0 0 0 0 0 0 0 0 0 0 0
3 3 3 2 2 1 1 1 1 1 1 1 0 0 0 0 0 0 0 0 0 0 0 0 0 0 0 0 0 0 0 0 0 0 0 0 0 0 0 0 0 0 0
3 3 3 2 2 2 1 1 1 1 1 1 0 0 0 0 0 0 0 0 0 0 0 0 0 0 0 0 0 0 0 0 0 0 0 0 0 0 0 0 0 0 0
2 2 2 2 2 2 1 1 1 1 1 0 0 0 0 0 0 0 0 0 0 0 0 0 0 0 0 0 0 0 0 0 0 0 0 0 0 0 0 0 0 0 0
1 1 1 2 2 2 1 1 1 1 1 1 0 0 0 0 0 0 0 0 0 0 0 0 0 0 0 0 0 0 0 0 0 0 0 0 0 0 0 0 0 0 0
1 1 1 1 1 1 1 1 1 1 1 1 1 1 0 0 0 0 0 0 0 0 0 0 0 0 0 0 0 0 0 0 0 0 0 0 0 0 0 0 0 0 1
1 1 1 1 1 1 1 1 1 1 2 2 1 1 1 1 0 0 0 0 0 0 0 0 0 0 0 0 0 0 0 0 0 0 0 0 0 0 0 0 0 0 0
1 1 1 1 1 1 1 1 1 1 2 2 2 2 1 1 1 1 1 1 1 0 0 0 0 0 0 0 0 0 0 0 0 0 0 0 0 0 0 0 0 0 0
1 1 1 1 1 1 1 2 2 2 2 2 2 2 2 1 1 1 1 1 1 1 1 1 1 1 1 1 1 1 1 1 1 0 0 0 0 0 0 0 0 0 0
1 1 1 1 1 1 2 2 2 2 2 2 2 2 2 2 1 1 1 1 1 1 1 1 1 1 1 1 1 1 1 1 0 0 0 0 0 0 0 0 0 0 0
1 1 1 1 1 1 2 2 3 3 3 2 2 2 2 2 2 2 1 1 1 1 1 1 1 2 2 1 1 1 1 1 0 0 0 0 0 0 0 0 0 0 1
0 1 1 1 1 1 2 2 3 3 3 3 3 3 3 2 2 2 2 2 2 2 2 2 2 2 2 2 1 1 1 1 0 0 0 0 0 0 0 0 0 0 0
0 0 1 1 1 1 1 2 2 3 3 3 3 3 3 3 3 3 2 2 2 2 2 3 3 3 3 2 2 1 1 1 1 0 0 0 0 0 0 0 0 0 0
0 0 1 1 1 1 1 1 1 2 2 2 3 3 3 3 3 3 3 3 3 3 3 3 3 3 3 2 2 2 1 1 1 0 0 0 0 0 0 0 0 0 0
0 0 0 0 1 1 1 1 1 1 1 2 2 3 3 3 3 2 3 3 3 4 4 4 4 3 3 2 2 2 1 1 1 0 0 0 0 0 0 0 0 0 0
Wind_Speed
13 16 20 18 17 16 14 13 12 12 13 14 15 16 16 16 16 16 16 16 16 16 16 16 15 15 15 15 15 14 14 14 14 13 12 12 12 12 12 10 8 11 12
16 18 20 18 17 16 15 13 12 12 12 14 16 16 17 17 17 16 16 16 16 16 16 15 15 14 14 14 13 13 13 13 12 10 7 9 10 11 12 12 12 9 11
16 18 20 17 17 16 15 13 13 12 13 14 15 16 17 17 17 16 16 16 16 16 15 15 14 14 13 13 12 12 12 12 10 6 2 8 11 11 11 11 11 11 11
17 17 17 18 17 17 16 14 14 13 14 14 15 16 16 17 17 16 16 16 16 15 15 14 13 13 12 12 11 11 11 10 7 1 6 8 9 11 11 11 11 11 11
16 16 17 17 17 17 16 15 14 14 14 14 15 15 16 17 17 16 16 15 15 14 14 13 12 12 11 11 11 10 10 9 3 4 8 8 8 10 10 10 10 10 9
16 15 17 16 17 17 16 15 15 14 14 15 15 15 16 16 16 16 15 15 14 13 13 12 11 11 10 10 10 9 8 5 2 7 7 7 8 9 9 9 9 9 9
15 14 17 16 17 17 16 15 14 14 15 15 15 15 15 16 16 16 15 14 13 13 12 11 11 10 10 9 9 8 6 1 4 6 5 6 7 7 7 7 7 7 7
15 14 16 16 15 16 15 15 14 14 14 14 14 15 15 15 15 15 14 14 13 12 11 10 10 9 9 8 8 7 4 1 3 5 4 5 6 5 5 5 5 6 6
13 13 13 15 15 14 13 13 13 13 13 13 13 14 13 13 14 14 13 12 12 11 10 9 8 8 8 7 6 5 3 2 1 3 3 3 4 3 3 3 3 4 4
12 12 13 14 14 14 13 12 11 11 12 12 12 12 12 11 11 11 11 10 10 10 9 8 7 7 6 5 5 4 2 4 1 2 1 3 2 1 1 1 1 1 1
11 11 12 12 13 13 13 13 12 11 11 12 12 12 11 10 11 9 10 8 8 8 8 7 6 6 5 5 4 3 4 2 1 0 1 3 2 3 2 2 2 2 2
12 12 10 11 13 13 10 11 10 10 11 10 10 12 9 8 7 7 10 7 7 6 6 6 5 5 5 4 5 5 3 1 1 0 1 1 4 5 5 4 4 4 4
11 11 11 11 11 12 9 9 7 7 8 9 11 10 8 7 6 6 6 6 6 7 6 6 6 4 3 1 2 2 1 2 2 1 1 0 5 6 6 6 6 6 6
11 12 12 12 11 11 10 8 8 7 7 7 8 10 7 5 6 6 4 5 5 4 4 4 3 3 3 3 3 3 2 2 2 2 0 0 5 7 8 8 7 7 7
12 12 13 13 12 11 10 8 8 8 8 8 7 8 8 6 6 6 5 4 4 4 4 4 4 3 3 3 3 3 4 4 4 3 2 2 4 7 8 8 8 8 7
14 13 12 13 12 12 10 9 8 8 7 7 7 8 9 6 6 5 5 5 4 4 3 4 4 3 3 3 3 4 4 4 4 5 4 3 4 5 7 8 8 6 5
10 11 12 12 13 13 12 11 8 8 8 7 7 9 9 7 7 6 5 5 4 4 4 3 4 3 3 3 4 4 4 4 5 5 5 4 3 3 4 6 5 4 2
8 9 11 10 12 12 11 10 7 8 8 7 7 7 9 9 8 6 5 5 5 4 4 3 3 3 3 3 3 2 3 3 5 5 4 4 4 3 1 1 3 2 0
9 9 10 10 11 11 10 8 8 7 8 7 7 7 8 9 9 7 5 5 5 4 4 4 4 3 3 3 3 3 3 3 3 3 3 3 3 3 2 2 2 3 2
10 9 9 10 10 10 8 7 6 7 6 6 7 7 9 8 9 7 5 6 6 5 4 4 5 4 3 3 3 3 3 2 2 2 2 2 2 2 2 2 1 3 5
9 9 10 11 10 8 7 7 7 7 7 6 6 8 9 8 9 7 5 6 5 5 5 5 4 5 3 2 3 3 3 2 1 0 1 1 2 3 2 2 2 1 2
9 10 11 12 11 10 8 6 5 5 5 5 5 7 8 9 8 6 7 5 5 4 5 5 5 4 3 3 3 3 3 4 3 1 1 1 2 2 3 3 3 3 2
8 8 8 9 9 10 9 6 5 4 3 4 6 6 8 8 8 7 7 6 5 5 5 6 6 6 4 4 3 3 3 3 1 3 2 1 1 1 2 2 3 3 3
8 7 7 7 8 9 9 8 9 7 6 6 6 6 7 7 7 7 7 7 6 5 5 5 5 5 5 4 3 3 4 3 3 2 3 2 1 1 1 1 2 2 3
5 6 6 6 6 7 8 8 8 7 5 4 5 6 6 6 6 7 7 7 6 5 6 6 5 5 4 5 4 3 4 4 5 5 4 3 2 2 1 0 0 1 2
3 4 5 6 5 5 6 7 8 8 7 7 7 7 6 4 5 7 7 7 6 6 6 6 6 6 5 5 4 3 3 3 4 4 5 4 3 2 1 0 0 1 1
Wind_Direction
165 157 152 153 152 150 149 148 148 150 151 149 149 147 144 140 136 133 128 125 123 121 117 112 108 102 98 93 89 85 82 79 77 74 71 68 69 69 65 51 54 69 61
160 156 151 154 153 151 149 148 147 147 148 148 148 146 143 139 136 133 130 127 124 121 117 113 108 103 99 95 92 89 86 82 80 76 82 89 71 68 66 56 48 60 60
158 154 153 154 153 150 147 146 146 146 147 148 146 144 142 138 135 132 129 127 125 122 118 112 108 105 101 98 95 93 89 85 81 76 93 86 81 70 67 64 62 62 61
157 155 156 151 153 150 148 147 146 147 147 147 144 142 140 137 134 132 129 127 125 122 117 113 110 108 105 101 99 96 93 87 79 16 76 73 77 69 65 64 62 61 59
156 156 148 153 153 150 149 149 147 147 147 144 143 141 139 136 134 132 129 127 124 121 118 116 113 110 107 103 101 99 95 91 89 76 75 73 74 68 63 60 59 59 59
156 156 149 156 153 151 152 151 150 148 146 143 143 141 138 135 133 131 129 126 124 123 122 121 119 115 111 107 105 102 100 106 144 79 75 71 73 70 65 61 59 57 56
155 155 153 157 154 153 155 153 152 151 147 144 142 140 138 135 134 132 130 128 128 128 127 125 124 121 117 112 108 105 100 62 75 82 76 71 69 63 64 63 59 56 54
155 154 154 157 155 155 157 155 153 151 148 145 143 141 139 138 136 135 135 134 134 133 130 127 124 123 120 116 112 110 111 281 98 84 79 76 62 58 61 64 59 55 53
157 155 157 161 159 156 155 155 154 151 146 143 143 139 135 133 136 138 139 139 138 135 131 128 125 123 120 116 114 112 105 315 50 81 77 74 57 51 56 63 62 55 53
161 157 160 165 164 163 160 153 150 146 142 139 134 128 126 129 134 137 143 138 138 135 132 129 127 124 120 117 117 117 140 235 105 110 101 82 29 348 16 24 40 42 43
166 162 164 167 167 165 161 153 152 145 138 138 133 129 143 151 148 151 135 129 134 133 133 133 130 124 129 131 126 149 217 242 94 30 70 64 302 288 273 264 266 271 273
173 167 168 170 170 165 159 161 164 160 157 164 157 157 163 155 147 143 124 125 127 129 137 134 132 156 205 169 155 201 223 241 265 234 86 49 290 284 277 265 256 256 258
179 172 175 172 173 168 162 164 165 163 164 168 165 166 162 154 149 155 155 153 157 164 165 154 182 189 202 192 217 220 257 273 275 275 129 119 293 288 283 276 264 260 258
184 181 182 177 174 176 168 166 167 165 166 166 168 170 167 164 167 165 171 169 173 177 175 189 201 187 203 208 225 240 238 259 274 284 26 205 289 289 284 280 274 267 263
189 188 186 182 179 179 173 169 171 170 171 168 169 175 176 172 171 170 173 175 182 180 185 195 205 199 214 222 234 256 260 265 276 277 252 198 272 287 286 283 279 272 268
191 189 185 185 184 183 179 174 173 172 171 172 173 178 182 179 176 176 177 181 183 189 194 204 208 216 226 238 252 262 273 279 280 284 291 249 224 269 286 286 282 280 274
191 189 189 184 185 186 184 180 175 174 173 176 178 182 186 185 183 185 187 188 188 189 195 208 210 230 238 246 252 266 279 288 289 288 290 297 279 239 269 291 290 291 276
192 191 191 186 185 187 183 180 177 180 177 179 182 185 190 190 191 192 194 195 190 191 200 207 219 225 229 242 255 262 271 281 288 301 298 295 299 301 261 328 320 319 346
199 197 195 190 189 187 180 179 177 180 182 179 182 188 192 194 195 198 200 196 191 196 201 202 220 230 234 240 258 271 279 283 294 295 302 317 325 321 321 73 58 32 45
201 198 201 193 190 187 176 172 173 182 185 183 186 188 189 192 194 196 197 197 192 197 200 203 207 218 243 251 255 262 270 286 289 315 328 343 360 358 346 359 86 78 57
205 203 204 196 192 188 179 176 178 184 186 186 187 187 190 190 189 190 191 194 196 202 203 206 209 214 222 238 246 246 231 229 242 68 23 19 47 40 36 32 29 40 73
207 207 207 199 192 192 188 178 178 175 183 185 180 185 189 188 186 185 188 187 192 201 205 207 208 213 210 219 243 255 245 201 170 134 75 55 53 58 53 42 44 38 35
209 212 213 204 196 193 185 170 161 160 161 175 181 184 189 185 183 182 183 183 188 199 206 206 208 214 211 205 231 252 260 260 200 173 140 128 84 73 67 54 49 41 31
205 207 205 203 195 193 188 184 185 188 192 194 185 184 184 185 186 184 184 184 189 195 202 204 209 215 222 212 206 239 266 289 265 244 182 171 133 78 62 63 59 56 35
200 201 193 195 190 185 189 194 195 197 196 180 175 181 184 184 185 185 184 183 187 193 198 196 197 205 220 225 213 208 223 237 245 255 252 214 197 180 126 56 58 67 52
173 182 183 185 191 193 194 200 200 201 192 182 185 188 188 183 186 188 183 184 186 191 191 191 194 198 207 215 216 214 218 223 223 235 251 253 249 193 167 169 162 98 66